• In Uzbekistan
  • List of Countries
  • For 7 days
  • Water Temperature
  • Satellite Maps
  • Weather Map
  • Weather Widgets
  • user-avatar
    Login

    Hourly Weather Salta

    Today, 25 February, Saturday

    Time Temperature Precipitation Wind Pressure Humidity
    00:00 +22°C° 0 mm 1 mps 651 mmHg 74%
    01:00 +21°C° 0 mm 1 mps 651 mmHg 76%
    02:00 +21°C° 0 mm 1 mps 651 mmHg 76%
    03:00 +18°C° 0 mm 0 mps 651 mmHg 78%
    04:00 +18°C° 0 mm 0 mps 651 mmHg 80%
    05:00 +18°C° 0 mm 0 mps 650 mmHg 81%
    06:00 +21°C° 0 mm 1 mps 651 mmHg 75%
    07:00 +23°C° 0 mm 1 mps 652 mmHg 68%
    08:00 +25°C° 0 mm 1 mps 653 mmHg 60%
    09:00 +26°C° 0.1 mm 1 mps 653 mmHg 55%
    10:00 +28°C° 0.1 mm 1 mps 653 mmHg 50%
    11:00 +29°C° 0.1 mm 2 mps 653 mmHg 46%
    12:00 +29°C° 0.4 mm 2 mps 653 mmHg 46%
    13:00 +30°C° 0.4 mm 3 mps 652 mmHg 47%
    14:00 +30°C° 0.4 mm 3 mps 652 mmHg 47%
    15:00 +29°C° 0.7 mm 3 mps 651 mmHg 51%
    16:00 +28°C° 0.7 mm 3 mps 651 mmHg 55%
    17:00 +27°C° 0.7 mm 3 mps 650 mmHg 59%
    18:00 +26°C° 0.7 mm 2 mps 650 mmHg 67%
    19:00 +24°C° 0.7 mm 2 mps 650 mmHg 75%
    20:00 +22°C° 0.7 mm 1 mps 650 mmHg 84%
    21:00 +22°C° 0.7 mm 1 mps 650 mmHg 85%
    22:00 +21°C° 0.7 mm 1 mps 651 mmHg 86%
    23:00 +21°C° 0.7 mm 1 mps 651 mmHg 87%

    Tomorrow, 26 February, Sunday

    Time Temperature Precipitation Wind Pressure Humidity
    00:00 +21°C° 0.7 mm 1 mps 651 mmHg 87%
    01:00 +21°C° 0.7 mm 1 mps 651 mmHg 88%
    02:00 +20°C° 0.7 mm 1 mps 650 mmHg 88%
    03:00 +20°C° 0.6 mm 1 mps 650 mmHg 88%
    04:00 +20°C° 0.6 mm 1 mps 650 mmHg 88%
    05:00 +20°C° 0.6 mm 1 mps 650 mmHg 88%
    06:00 +21°C° 0.3 mm 1 mps 650 mmHg 84%
    07:00 +21°C° 0.3 mm 1 mps 651 mmHg 81%
    08:00 +22°C° 0.3 mm 1 mps 651 mmHg 78%
    09:00 +23°C° 0.5 mm 1 mps 651 mmHg 74%
    10:00 +24°C° 0.5 mm 1 mps 651 mmHg 69%
    11:00 +24°C° 0.5 mm 1 mps 651 mmHg 65%
    12:00 +25°C° 0.3 mm 1 mps 651 mmHg 63%
    13:00 +26°C° 0.3 mm 1 mps 650 mmHg 61%
    14:00 +26°C° 0.3 mm 2 mps 650 mmHg 59%
    15:00 +26°C° 0.3 mm 1 mps 649 mmHg 61%
    16:00 +26°C° 0.3 mm 1 mps 649 mmHg 62%
    17:00 +25°C° 0.3 mm 1 mps 649 mmHg 64%
    18:00 +24°C° 0.7 mm 1 mps 649 mmHg 69%
    19:00 +23°C° 0.7 mm 1 mps 649 mmHg 74%
    20:00 +22°C° 0.7 mm 1 mps 649 mmHg 80%
    21:00 +22°C° 1.6 mm 1 mps 649 mmHg 81%
    22:00 +21°C° 1.6 mm 1 mps 650 mmHg 83%
    23:00 +21°C° 1.6 mm 1 mps 650 mmHg 84%

    Day after tomorrow, 27 February, Monday

    Time Temperature Precipitation Wind Pressure Humidity
    00:00 +21°C° 1.8 mm 1 mps 650 mmHg 85%
    01:00 +21°C° 1.8 mm 1 mps 650 mmHg 85%
    02:00 +20°C° 1.8 mm 1 mps 649 mmHg 85%
    03:00 +20°C° 1.7 mm 1 mps 649 mmHg 85%
    04:00 +20°C° 1.7 mm 1 mps 649 mmHg 85%
    05:00 +20°C° 1.7 mm 1 mps 649 mmHg 85%
    06:00 +21°C° 1.3 mm 1 mps 649 mmHg 84%
    07:00 +21°C° 1.3 mm 1 mps 650 mmHg 82%
    08:00 +22°C° 1.3 mm 1 mps 650 mmHg 80%
    09:00 +22°C° 1.2 mm 1 mps 650 mmHg 77%
    10:00 +23°C° 1.2 mm 1 mps 651 mmHg 73%
    11:00 +24°C° 1.2 mm 1 mps 651 mmHg 69%
    12:00 +24°C° 0.3 mm 2 mps 650 mmHg 68%
    13:00 +25°C° 0.3 mm 2 mps 650 mmHg 67%
    14:00 +26°C° 0.3 mm 2 mps 649 mmHg 65%
    15:00 +26°C° 0.2 mm 2 mps 649 mmHg 65%
    16:00 +26°C° 0.2 mm 2 mps 649 mmHg 65%
    17:00 +26°C° 0.2 mm 2 mps 648 mmHg 66%
    18:00 +24°C° 0.4 mm 2 mps 648 mmHg 73%
    19:00 +22°C° 0.4 mm 1 mps 649 mmHg 81%
    20:00 +21°C° 0.4 mm 1 mps 649 mmHg 88%
    21:00 +21°C° 0.7 mm 1 mps 649 mmHg 87%
    22:00 +21°C° 0.7 mm 1 mps 650 mmHg 86%
    23:00 +20°C° 0.7 mm 1 mps 650 mmHg 84%

    28 February, Tuesday

    Time Temperature Precipitation Wind Pressure Humidity
    00:00 +20°C° 1.2 mm 1 mps 650 mmHg 84%
    01:00 +20°C° 1.2 mm 1 mps 649 mmHg 84%
    02:00 +20°C° 1.2 mm 1 mps 649 mmHg 84%
    03:00 +20°C° 0.9 mm 1 mps 649 mmHg 84%
    04:00 +18°C° 0.9 mm 0 mps 649 mmHg 84%
    05:00 +18°C° 0.9 mm 0 mps 649 mmHg 84%
    06:00 +21°C° 0.4 mm 1 mps 649 mmHg 81%
    07:00 +21°C° 0.4 mm 1 mps 650 mmHg 78%
    08:00 +22°C° 0.4 mm 1 mps 651 mmHg 74%
    09:00 +23°C° 0.5 mm 1 mps 651 mmHg 72%
    10:00 +24°C° 0.5 mm 2 mps 651 mmHg 69%
    11:00 +25°C° 0.5 mm 2 mps 651 mmHg 66%
    12:00 +25°C° 0.5 mm 2 mps 651 mmHg 63%
    13:00 +26°C° 0.5 mm 2 mps 650 mmHg 60%
    14:00 +27°C° 0.5 mm 2 mps 649 mmHg 57%
    15:00 +27°C° 0 mm 2 mps 649 mmHg 57%
    16:00 +27°C° 0 mm 2 mps 648 mmHg 56%
    17:00 +27°C° 0 mm 2 mps 648 mmHg 56%
    18:00 +25°C° 0 mm 2 mps 648 mmHg 64%
    19:00 +22°C° 0 mm 1 mps 648 mmHg 73%
    20:00 +20°C° 0 mm 1 mps 647 mmHg 82%
    21:00 +20°C° 0 mm 1 mps 648 mmHg 83%
    22:00 +20°C° 0 mm 1 mps 648 mmHg 85%
    23:00 +19°C° 0 mm 1 mps 648 mmHg 87%

    1 March, Wednesday

    Time Temperature Precipitation Wind Pressure Humidity
    00:00 +17°C° 0 mm 0 mps 648 mmHg 86%
    01:00 +17°C° 0 mm 0 mps 648 mmHg 86%
    02:00 +17°C° 0 mm 0 mps 647 mmHg 86%
    03:00 +17°C° 0 mm 0 mps 647 mmHg 86%
    04:00 +18°C° 0 mm 1 mps 647 mmHg 87%
    05:00 +18°C° 0 mm 1 mps 647 mmHg 87%
    06:00 +20°C° 0 mm 1 mps 648 mmHg 78%
    07:00 +22°C° 0 mm 1 mps 649 mmHg 70%
    08:00 +24°C° 0 mm 1 mps 650 mmHg 61%
    09:00 +25°C° 0 mm 1 mps 650 mmHg 56%
    10:00 +27°C° 0 mm 2 mps 650 mmHg 50%
    11:00 +29°C° 0 mm 2 mps 650 mmHg 45%
    12:00 +29°C° 0.2 mm 2 mps 650 mmHg 44%
    13:00 +30°C° 0.2 mm 3 mps 649 mmHg 43%
    14:00 +31°C° 0.2 mm 3 mps 648 mmHg 42%
    15:00 +30°C° 0.1 mm 3 mps 648 mmHg 44%
    16:00 +30°C° 0.1 mm 3 mps 648 mmHg 46%
    17:00 +29°C° 0.1 mm 3 mps 647 mmHg 47%
    18:00 +27°C° 0.1 mm 3 mps 647 mmHg 57%
    19:00 +25°C° 0.1 mm 2 mps 647 mmHg 66%
    20:00 +22°C° 0.1 mm 1 mps 647 mmHg 76%
    21:00 +22°C° 0.2 mm 1 mps 647 mmHg 79%
    22:00 +21°C° 0.2 mm 1 mps 648 mmHg 82%
    23:00 +21°C° 0.2 mm 1 mps 648 mmHg 85%

    2 March, Thursday

    Time Temperature Precipitation Wind Pressure Humidity
    00:00 +20°C° 0 mm 1 mps 647 mmHg 86%
    01:00 +18°C° 0 mm 0 mps 647 mmHg 87%
    02:00 +17°C° 0 mm 0 mps 646 mmHg 88%
    03:00 +17°C° 0 mm 0 mps 646 mmHg 88%
    04:00 +17°C° 0 mm 0 mps 646 mmHg 87%
    05:00 +19°C° 0 mm 1 mps 646 mmHg 87%
    06:00 +21°C° 0 mm 1 mps 647 mmHg 79%
    07:00 +22°C° 0 mm 1 mps 648 mmHg 72%
    08:00 +24°C° 0 mm 1 mps 648 mmHg 64%
    09:00 +26°C° 0 mm 1 mps 649 mmHg 58%
    10:00 +27°C° 0 mm 2 mps 649 mmHg 52%
    11:00 +29°C° 0 mm 2 mps 649 mmHg 46%
    12:00 +30°C° 0.2 mm 2 mps 649 mmHg 43%
    13:00 +31°C° 0.2 mm 3 mps 648 mmHg 41%
    14:00 +33°C° 0.2 mm 3 mps 648 mmHg 39%
    15:00 +31°C° 0.2 mm 3 mps 647 mmHg 41%
    16:00 +31°C° 0.2 mm 3 mps 647 mmHg 43%
    17:00 +30°C° 0.2 mm 3 mps 647 mmHg 45%
    18:00 +28°C° 0.6 mm 3 mps 647 mmHg 56%
    19:00 +25°C° 0.6 mm 2 mps 647 mmHg 67%
    20:00 +23°C° 0.6 mm 1 mps 647 mmHg 79%
    21:00 +23°C° 0.7 mm 1 mps 647 mmHg 79%
    22:00 +23°C° 0.7 mm 1 mps 648 mmHg 79%
    23:00 +23°C° 0.7 mm 1 mps 648 mmHg 78%
    Show more